[[{"header":{"parameterUnit":"m.s-1","parameterCategory":2,"la1":30.2992,"la2":30.254,"lo1":-89.0895,"lo2":-89.0443,"dy":0.0025,"dx":0.0025,"nx":19,"ny":19,"refTime":"2026-04-22T03:00:00:Z","depth":"0","parameterNumber":2,"parameterNumberName":"U-component_of_CURRENTS"},"data":[0,0,0,-0.2996,-0.2999,-0.3109,-0.3109,-0.3201,-0.3201,0,0,0,0,0,0,0,0,0,0,0,-0.2935,-0.2936,-0.2995,-0.2999,-0.3109,-0.3109,-0.32,-0.3201,0,0,0,0,0,0,0,0,0,0,0,-0.2935,-0.2935,-0.2936,-0.2999,-0.3109,-0.3109,-0.32,-0.3125,0,0,0,0,0,0,0,0,0,0,-0.3023,-0.2962,-0.2935,-0.2936,-0.3,-0.3109,-0.3109,-0.3122,-0.313,-0.3142,0,-0.3158,0,-0.32,-0.3208,-0.3208,0,0,0,-0.2982,-0.2955,-0.3011,-0.2936,-0.3001,-0.3109,-0.3054,-0.3127,-0.3136,-0.3153,-0.316,-0.3165,-0.3201,-0.3209,-0.3209,-0.339,-0.3391,0,0,-0.2975,-0.2931,-0.3005,-0.3016,-0.3029,-0.3051,-0.3058,-0.3132,-0.3125,-0.316,-0.3168,-0.3203,-0.3209,-0.321,-0.3389,-0.339,0,0,0,-0.297,-0.2926,-0.298,-0.3011,-0.3046,-0.3054,-0.3063,-0.312,-0.3146,-0.3169,-0.3204,-0.321,-0.3211,-0.3388,-0.3389,-0.3332,0,0,0,-0.2965,-0.2926,-0.2977,-0.2948,-0.3044,-0.3089,-0.3048,-0.314,-0.3151,-0.3204,-0.321,-0.3212,-0.3386,-0.3389,-0.333,-0.3242,0,0,0,-0.293,-0.2922,-0.294,-0.2946,-0.3008,-0.3089,-0.3117,-0.3143,-0.3173,-0.3209,-0.3212,-0.3385,-0.3388,-0.3329,-0.3244,-0.3122,0,0,0,-0.2874,-0.2915,-0.2938,-0.302,-0.3007,-0.3166,-0.3117,-0.3215,-0.3256,-0.321,-0.3386,-0.3389,-0.3329,-0.3244,-0.3125,-0.2966,-0.2941,0,0,-0.2905,-0.2916,-0.2981,-0.3007,-0.3178,-0.315,-0.3262,-0.3279,-0.3301,-0.3352,-0.3356,-0.3331,-0.3244,-0.3123,-0.3137,-0.3106,0,0,0,-0.2982,-0.3038,-0.3094,-0.3198,-0.3291,-0.3284,-0.3355,-0.3327,-0.3345,-0.3343,-0.3408,-0.3355,-0.3278,-0.3193,-0.3171,-0.3123,-0.3403,-0.3403,-0.3402,-0.2941,-0.3065,-0.317,-0.331,-0.3369,-0.3414,-0.3374,-0.3353,-0.3424,-0.3417,-0.3367,-0.3313,-0.3232,-0.321,-0.3169,-0.3471,-0.3471,-0.3471,-0.347,-0.3021,-0.3057,-0.319,-0.3332,-0.3342,-0.3402,-0.3351,-0.3344,-0.3282,-0.3363,-0.3293,-0.3213,-0.318,-0.3146,-0.3468,-0.3468,-0.3469,-0.3469,-0.3469,-0.2975,-0.298,-0.3117,-0.3234,-0.3246,-0.3284,-0.3134,-0.3163,-0.3186,-0.3143,-0.3032,-0.3031,-0.2935,-0.3127,-0.3126,-0.3126,-0.3125,-0.3124,-0.3124,-0.2779,-0.2916,-0.2958,-0.3091,-0.3062,-0.301,-0.298,-0.292,-0.2886,-0.2916,-0.2915,-0.2926,-0.3206,-0.3144,-0.311,-0.3113,-0.3115,-0.3116,-0.3117,-0.2623,-0.2678,-0.2727,-0.2732,-0.2678,-0.2525,-0.2601,-0.253,-0.2508,-0.2465,-0.2562,-0.2772,-0.274,-0.276,-0.2689,-0.2539,-0.2539,-0.2539,-0.2539,-0.2414,-0.2486,-0.2447,-0.2362,-0.2246,-0.2236,-0.2056,-0.2106,-0.2197,-0.22,-0.2304,-0.2387,-0.2412,-0.2368,-0.2397,-0.2324,-0.2084,-0.2084,-0.2084,-0.2228,-0.2279,-0.2149,-0.2165,-0.2017,-0.1917,-0.1778,-0.177,-0.1916,-0.2069,-0.2266,-0.2285,-0.2425,-0.2468,-0.2424,-0.2468,-0.2359,0,0]},{"header":{"parameterUnit":"m.s-1","parameterCategory":2,"la1":30.2992,"la2":30.254,"lo1":-89.0895,"lo2":-89.0443,"dy":0.0025,"dx":0.0025,"nx":19,"ny":19,"refTime":"2026-04-22T03:00:00:Z","depth":"0","parameterNumber":3,"parameterNumberName":"V-component_of_CURRENTS"},"data":[0,0,0,-0.0129,-0.0125,0.0066,0.0067,0.0286,0.0288,0,0,0,0,0,0,0,0,0,0,0,-0.0207,-0.0207,-0.0129,-0.0125,0.0066,0.0067,0.0286,0.0288,0,0,0,0,0,0,0,0,0,0,0,-0.0208,-0.0207,-0.0206,-0.0124,0.0066,0.0067,0.0285,0.0153,0,0,0,0,0,0,0,0,0,0,-0.0028,-0.0107,-0.0207,-0.0206,-0.0123,0.0065,0.0067,0.0147,0.0161,0.0186,0,0.0195,0,0.0243,0.03,0.03,0,0,0,-0.0104,-0.0119,-0.0067,-0.0206,-0.0122,0.0065,-0.0014,0.0155,0.0171,0.0204,0.0199,0.0208,0.0246,0.0301,0.0302,0.0341,0.034,0,0,-0.0114,-0.0165,-0.0078,-0.0058,-0.0098,-0.002,-0.0009,0.0165,0.0169,0.0199,0.0213,0.025,0.0302,0.0304,0.0342,0.0341,0,0,0,-0.0159,-0.0173,-0.0123,-0.0068,-0.0032,-0.0015,-0.0002,0.0162,0.0177,0.0216,0.0253,0.0303,0.0305,0.0343,0.0342,0.0189,0,0,0,-0.0164,-0.02,-0.0129,-0.0156,-0.0037,0.007,-0.001,0.0165,0.0187,0.0251,0.0303,0.0307,0.0344,0.0342,0.0195,0.0168,0,0,0,-0.0211,-0.0204,-0.019,-0.0159,-0.0084,0.0068,0.0096,0.0172,0.0208,0.0301,0.0308,0.0345,0.0343,0.0201,0.0177,0.0247,0,0,0,-0.0256,-0.0285,-0.0192,-0.0216,-0.0086,-0.004,0.0096,0.0161,0.0226,0.0304,0.0344,0.0342,0.0203,0.0182,0.025,0.0361,0.0356,0,0,-0.0326,-0.0294,-0.0312,-0.0225,-0.0245,-0.0063,-0.0059,0.0096,0.0201,0.0292,0.0294,0.0193,0.0177,0.0247,0.0233,0.0232,0,0,0,-0.0357,-0.0387,-0.0373,-0.0357,-0.0272,-0.019,-0.0039,0.0035,0.0131,0.0228,0.0191,0.0187,0.0237,0.0309,0.0307,0.0567,0.0332,0.0332,0.0332,-0.0526,-0.0489,-0.0541,-0.0492,-0.044,-0.0279,-0.0198,-0.0069,0.0024,0.0034,0.0058,0.0004,0.0071,0.0074,0.0336,0.0034,0.0034,0.0033,0.0033,-0.0694,-0.0729,-0.0676,-0.0714,-0.0596,-0.0556,-0.0351,-0.0256,-0.0117,-0.0072,-0.0016,0.0137,0.0064,0.0345,0.0023,0.0025,0.0026,0.0027,0.0028,-0.0827,-0.0836,-0.0853,-0.0884,-0.0843,-0.0696,-0.0559,-0.0407,-0.0239,-0.0197,0.0008,0.0012,0.0278,-0.0144,-0.0144,-0.0143,-0.0143,-0.0143,-0.0143,-0.0935,-0.0953,-0.1036,-0.1046,-0.1037,-0.0927,-0.0664,-0.0504,-0.0245,-0.0105,-0.0102,0.0292,-0.0046,-0.0019,-0.0142,-0.0142,-0.0142,-0.0142,-0.0142,-0.1058,-0.107,-0.1203,-0.1233,-0.1185,-0.1033,-0.079,-0.0385,-0.0203,-0.0055,0.0365,-0.0009,0.0092,0.0095,0.0129,0.0053,0.0053,0.0053,0.0053,-0.1127,-0.1152,-0.1312,-0.1357,-0.1292,-0.1066,-0.068,-0.0259,0.0257,0.0537,0.0588,0.0639,0.062,0.0756,0.0744,0.0793,0.0887,0.0889,0.089,-0.1185,-0.1246,-0.1351,-0.1411,-0.1332,-0.104,-0.062,-0.0027,0.0689,0.0947,0.0927,0.0891,0.0985,0.0934,0.1161,0.1124,0.1209,0,0]}],[{"header":{"parameterUnit":"m.s-1","parameterCategory":2,"la1":30.2992,"la2":30.254,"lo1":-89.0895,"lo2":-89.0443,"dy":0.0025,"dx":0.0025,"nx":19,"ny":19,"refTime":"2026-04-22T03:00:00:Z","depth":"2","parameterNumber":2,"parameterNumberName":"U-component_of_CURRENTS"},"data":[0,0,0,-0.2832,-0.2833,-0.2865,-0.2865,-0.2774,-0.2772,0,0,0,0,0,0,0,0,0,0,0,-0.2829,-0.2829,-0.2832,-0.2833,-0.2865,-0.2865,-0.2774,-0.2772,0,0,0,0,0,0,0,0,0,0,0,-0.2828,-0.2829,-0.283,-0.2834,-0.2865,-0.2865,-0.2774,-0.2781,0,0,0,0,0,0,0,0,0,0,-0.2765,-0.276,-0.2829,-0.283,-0.2834,-0.2865,-0.2865,-0.2782,-0.278,-0.2724,0,-0.2747,0,-0.2755,-0.2764,-0.2764,0,0,0,-0.2824,-0.2762,-0.2795,-0.283,-0.2834,-0.2865,-0.2848,-0.2782,-0.2779,-0.2721,-0.2746,-0.2743,-0.2754,-0.2763,-0.2763,-0.2975,-0.2978,0,0,-0.2822,-0.2802,-0.2798,-0.2795,-0.2862,-0.2847,-0.2849,-0.2782,-0.2769,-0.2746,-0.2742,-0.2752,-0.2763,-0.2762,-0.2971,-0.2975,0,0,0,-0.2824,-0.28,-0.2837,-0.2798,-0.2813,-0.2848,-0.2851,-0.2772,-0.2793,-0.2741,-0.2751,-0.2762,-0.276,-0.2968,-0.2973,-0.2873,0,0,0,-0.2822,-0.2802,-0.2837,-0.282,-0.2816,-0.2804,-0.2842,-0.2798,-0.279,-0.2751,-0.2762,-0.2759,-0.2964,-0.2971,-0.2868,-0.2789,0,0,0,-0.2824,-0.2801,-0.2818,-0.282,-0.2841,-0.2807,-0.2822,-0.2797,-0.2796,-0.2764,-0.2759,-0.2962,-0.2969,-0.2863,-0.2785,-0.2678,0,0,0,-0.2783,-0.2789,-0.2817,-0.282,-0.2841,-0.2949,-0.2823,-0.284,-0.2825,-0.2761,-0.2965,-0.2972,-0.2861,-0.2783,-0.2678,-0.25,-0.2486,0,0,-0.2766,-0.2786,-0.279,-0.2816,-0.2909,-0.2943,-0.3018,-0.2909,-0.2938,-0.2965,-0.2971,-0.2869,-0.2785,-0.2678,-0.2948,-0.2918,0,0,0,-0.2768,-0.2803,-0.2836,-0.2883,-0.2961,-0.2976,-0.2985,-0.3002,-0.3017,-0.2969,-0.3057,-0.301,-0.294,-0.2843,-0.2825,-0.3009,-0.3008,-0.3007,-0.3007,-0.2737,-0.2786,-0.2814,-0.2885,-0.2961,-0.3034,-0.3033,-0.3088,-0.3113,-0.3153,-0.3067,-0.3111,-0.3023,-0.3002,-0.325,-0.325,-0.3249,-0.3249,-0.3249,-0.2691,-0.2687,-0.2778,-0.2825,-0.2886,-0.2988,-0.3047,-0.3048,-0.3072,-0.3154,-0.309,-0.2921,-0.2972,-0.3245,-0.3246,-0.3246,-0.3247,-0.3247,-0.3247,-0.2658,-0.265,-0.27,-0.2718,-0.2828,-0.2916,-0.2891,-0.2958,-0.2988,-0.295,-0.2843,-0.2843,-0.2875,-0.2934,-0.2933,-0.2932,-0.2931,-0.2931,-0.293,-0.2539,-0.2607,-0.2553,-0.2638,-0.2648,-0.2683,-0.278,-0.2739,-0.2716,-0.2739,-0.2737,-0.3003,-0.3013,-0.2865,-0.2919,-0.2921,-0.2923,-0.2924,-0.2925,-0.2407,-0.2505,-0.2348,-0.2322,-0.2318,-0.2298,-0.2443,-0.2388,-0.2372,-0.2322,-0.2585,-0.2597,-0.2578,-0.2597,-0.2447,-0.2387,-0.2387,-0.2387,-0.2387,-0.2303,-0.2346,-0.2128,-0.2018,-0.1954,-0.2083,-0.1909,-0.191,-0.2036,-0.2061,-0.2075,-0.2133,-0.2162,-0.2126,-0.2156,-0.1999,-0.1823,-0.1822,-0.1821,-0.2127,-0.2078,-0.1878,-0.1845,-0.1816,-0.1799,-0.1621,-0.1471,-0.1557,-0.1801,-0.2003,-0.2344,-0.2475,-0.2502,-0.2489,-0.2521,-0.2286,0,0]},{"header":{"parameterUnit":"m.s-1","parameterCategory":2,"la1":30.2992,"la2":30.254,"lo1":-89.0895,"lo2":-89.0443,"dy":0.0025,"dx":0.0025,"nx":19,"ny":19,"refTime":"2026-04-22T03:00:00:Z","depth":"2","parameterNumber":3,"parameterNumberName":"V-component_of_CURRENTS"},"data":[0,0,0,-0.0246,-0.0244,-0.0093,-0.0092,0.0047,0.0047,0,0,0,0,0,0,0,0,0,0,0,-0.0294,-0.0293,-0.0247,-0.0244,-0.0093,-0.0092,0.0047,0.0047,0,0,0,0,0,0,0,0,0,0,0,-0.0294,-0.0294,-0.0293,-0.0244,-0.0093,-0.0092,0.0046,-0.0048,0,0,0,0,0,0,0,0,0,0,-0.0185,-0.0235,-0.0294,-0.0293,-0.0243,-0.0093,-0.0092,-0.0051,-0.0042,-0.0046,0,-0.0034,0,-0.0006,0.0053,0.0053,0,0,0,-0.0217,-0.0243,-0.0204,-0.0293,-0.0242,-0.0094,-0.0153,-0.0045,-0.0035,-0.0034,-0.0031,-0.0026,-0.0003,0.0053,0.0054,0.0149,0.015,0,0,-0.0225,-0.0261,-0.0211,-0.0198,-0.0218,-0.0158,-0.0149,-0.0038,-0.0035,-0.0031,-0.0022,-0.0001,0.0054,0.0055,0.0149,0.0149,0,0,0,-0.0267,-0.0267,-0.0228,-0.0204,-0.0181,-0.0155,-0.0144,-0.0039,-0.0027,-0.0021,0.0001,0.0054,0.0055,0.0148,0.0149,0.0003,0,0,0,-0.0271,-0.0294,-0.0233,-0.0252,-0.0183,-0.0103,-0.0148,-0.0034,-0.002,-0.0,0.0055,0.0056,0.0148,0.0149,0.0006,-0.0035,0,0,0,-0.0298,-0.0296,-0.0284,-0.0254,-0.0201,-0.0104,-0.0083,-0.0029,-0.001,0.0053,0.0057,0.0147,0.0148,0.0009,-0.003,0.0034,0,0,0,-0.0332,-0.0374,-0.0285,-0.0326,-0.0203,-0.0158,-0.0083,-0.0047,-0.0005,0.0055,0.0148,0.0149,0.0009,-0.0027,0.0035,0.0112,0.0113,0,0,-0.0419,-0.0385,-0.0413,-0.0331,-0.033,-0.0175,-0.0157,-0.0077,0.0019,0.0111,0.0114,0.0005,-0.0029,0.0034,0.0171,0.0169,0,0,0,-0.0465,-0.0485,-0.0471,-0.044,-0.0358,-0.0261,-0.0153,-0.0091,0.0005,0.0048,0.0067,0.0053,0.0096,0.0147,0.0146,0.0154,0.0154,0.0153,0.0153,-0.0608,-0.0567,-0.0599,-0.053,-0.0477,-0.0321,-0.0246,-0.0119,-0.0056,-0.002,-0.0023,-0.0011,0.004,0.0041,0.0019,0.0019,0.0018,0.0018,0.0017,-0.0745,-0.0782,-0.0686,-0.0709,-0.0569,-0.0521,-0.0334,-0.026,-0.0116,-0.0075,-0.0026,0.0045,0.0031,0.0007,0.0009,0.0011,0.0012,0.0012,0.0013,-0.087,-0.0885,-0.0874,-0.085,-0.0798,-0.065,-0.0532,-0.0389,-0.0228,-0.0187,-0.0019,-0.0015,-0.0083,-0.014,-0.014,-0.014,-0.014,-0.014,-0.014,-0.1009,-0.1001,-0.1039,-0.1012,-0.0979,-0.0874,-0.064,-0.0492,-0.0255,-0.0123,-0.012,-0.0061,-0.0056,-0.0085,-0.0139,-0.0139,-0.0139,-0.0139,-0.0139,-0.1171,-0.1198,-0.1229,-0.1219,-0.1113,-0.1,-0.0778,-0.041,-0.0238,-0.0105,-0.004,-0.0043,0.004,0.0044,0.0023,0.0,0.0,0.0,0.0,-0.1294,-0.131,-0.136,-0.1336,-0.1231,-0.105,-0.0724,-0.0363,-0.008,0.0042,0.004,0.0044,0.0038,0.0123,0.0125,0.0106,0.0105,0.0105,0.0105,-0.1368,-0.1381,-0.1421,-0.1407,-0.129,-0.1044,-0.0704,-0.0252,0.0091,0.0104,0.0006,0.0017,0.0018,0.0011,0.0142,0.0144,0.0115,0,0]}],[{"header":{"parameterUnit":"m.s-1","parameterCategory":2,"la1":30.2992,"la2":30.254,"lo1":-89.0895,"lo2":-89.0443,"dy":0.0025,"dx":0.0025,"nx":19,"ny":19,"refTime":"2026-04-22T03:00:00:Z","depth":"4","parameterNumber":2,"parameterNumberName":"U-component_of_CURRENTS"},"data":[0,0,0,-0.0988,-0.099,-0.109,-0.1091,-0.1195,-0.1195,0,0,0,0,0,0,0,0,0,0,0,-0.0962,-0.0963,-0.0988,-0.099,-0.109,-0.1091,-0.1194,-0.1195,0,0,0,0,0,0,0,0,0,0,0,-0.0962,-0.0962,-0.0963,-0.0991,-0.109,-0.1091,-0.1194,-0.1127,0,0,0,0,0,0,0,0,0,0,-0.1034,-0.1004,-0.0962,-0.0963,-0.0991,-0.109,-0.1091,-0.1124,-0.1131,-0.1139,0,-0.1158,0,-0.1171,-0.1201,-0.1201,0,0,0,-0.1,-0.0998,-0.1028,-0.0963,-0.0992,-0.109,-0.1048,-0.1129,-0.1136,-0.1148,-0.1159,-0.1163,-0.1172,-0.1201,-0.1202,-0.136,-0.1361,0,0,-0.0995,-0.0978,-0.1022,-0.1033,-0.1022,-0.1045,-0.1051,-0.1134,-0.1141,-0.116,-0.1166,-0.1174,-0.1202,-0.1202,-0.1359,-0.1361,0,0,0,-0.0972,-0.0974,-0.1002,-0.1028,-0.1044,-0.1047,-0.1055,-0.1138,-0.1148,-0.1167,-0.1175,-0.1202,-0.1203,-0.1358,-0.136,-0.1488,0,0,0,-0.0969,-0.096,-0.1,-0.099,-0.1043,-0.1093,-0.1056,-0.1143,-0.1152,-0.1175,-0.1202,-0.1204,-0.1357,-0.1359,-0.1482,-0.1555,0,0,0,-0.0957,-0.0958,-0.0972,-0.0989,-0.1027,-0.1092,-0.1108,-0.1146,-0.1157,-0.1201,-0.1204,-0.1356,-0.1358,-0.1476,-0.1545,-0.1603,0,0,0,-0.0933,-0.0955,-0.0971,-0.1017,-0.1026,-0.1116,-0.1108,-0.117,-0.1211,-0.1203,-0.1357,-0.136,-0.1475,-0.1538,-0.1597,-0.1269,0,0,0,-0.0945,-0.0956,-0.0989,-0.1006,-0.1102,-0.1102,-0.1229,-0.1269,-0.1258,-0.1326,-0.133,-0.1484,-0.1544,-0.1602,-0.143,0,0,0,0,-0.0984,-0.1013,-0.1044,-0.1111,-0.1167,-0.1283,-0.1305,-0.1348,-0.1443,-0.1293,-0.1502,-0.1537,-0.1569,-0.1361,-0.1373,-0.1372,-0.1372,-0.1372,-0.1371,-0.0978,-0.1042,-0.1121,-0.1218,-0.1297,-0.1407,-0.1508,-0.1576,-0.1524,-0.16,-0.1655,-0.1808,-0.1595,-0.1659,-0.166,-0.166,-0.1661,-0.1661,-0.1662,-0.102,-0.1059,-0.1199,-0.1297,-0.1441,-0.156,-0.174,-0.176,-0.1888,-0.1816,-0.1839,-0.1528,-0.1675,-0.1672,-0.167,-0.1669,-0.1668,-0.1667,-0.1666,-0.0966,-0.0999,-0.1102,-0.1296,-0.1508,-0.168,-0.1867,-0.1987,-0.2017,-0.2074,-0.1798,-0.19,-0.1873,-0.2057,-0.2057,-0.2058,-0.2059,-0.2059,-0.2059,-0.0852,-0.0965,-0.1077,-0.1309,-0.1453,-0.169,-0.1951,-0.2004,-0.2073,-0.193,-0.2096,-0.1941,-0.1928,-0.1896,-0.2069,-0.2067,-0.2066,-0.2065,-0.2065,-0.0762,-0.0833,-0.0977,-0.1119,-0.1461,-0.163,-0.1894,-0.1905,-0.1934,-0.185,-0.1839,-0.1848,-0.1768,-0.176,-0.1717,-0.1845,-0.1841,-0.1837,0,-0.0679,-0.0735,-0.0918,-0.1113,-0.1333,-0.1597,-0.1583,-0.1662,-0.1709,-0.1663,-0.1938,-0.193,-0.1931,-0.1842,-0.1829,-0.1779,0,0,0,-0.0648,-0.0706,-0.0796,-0.1018,-0.1274,-0.1419,-0.1584,-0.1522,-0.1721,-0.1593,-0.1748,-0.1771,-0.189,-0.2098,-0.1996,-0.198,-0.1922,0,0]},{"header":{"parameterUnit":"m.s-1","parameterCategory":2,"la1":30.2992,"la2":30.254,"lo1":-89.0895,"lo2":-89.0443,"dy":0.0025,"dx":0.0025,"nx":19,"ny":19,"refTime":"2026-04-22T03:00:00:Z","depth":"4","parameterNumber":3,"parameterNumberName":"V-component_of_CURRENTS"},"data":[0,0,0,-0.0269,-0.0268,-0.0199,-0.0199,-0.008,-0.0079,0,0,0,0,0,0,0,0,0,0,0,-0.0296,-0.0296,-0.0269,-0.0268,-0.0199,-0.0199,-0.008,-0.0079,0,0,0,0,0,0,0,0,0,0,0,-0.0296,-0.0296,-0.0295,-0.0267,-0.0199,-0.0198,-0.0081,-0.0136,0,0,0,0,0,0,0,0,0,0,-0.0205,-0.0239,-0.0296,-0.0295,-0.0267,-0.0199,-0.0198,-0.0139,-0.0133,-0.0107,0,-0.0109,0,-0.0096,-0.0072,-0.0072,0,0,0,-0.0253,-0.0244,-0.0229,-0.0295,-0.0267,-0.0199,-0.0226,-0.0136,-0.0129,-0.0099,-0.0108,-0.0103,-0.0094,-0.0071,-0.0071,0.0058,0.0058,0,0,-0.0257,-0.0274,-0.0235,-0.0225,-0.0264,-0.0228,-0.0224,-0.0132,-0.0128,-0.0107,-0.01,-0.0092,-0.0071,-0.007,0.0057,0.0058,0,0,0,-0.0277,-0.0277,-0.0264,-0.023,-0.0222,-0.0227,-0.0222,-0.0132,-0.0129,-0.0099,-0.0091,-0.007,-0.0069,0.0057,0.0057,0.0008,0,0,0,-0.0279,-0.029,-0.0266,-0.0274,-0.0225,-0.018,-0.0224,-0.0136,-0.0125,-0.0091,-0.007,-0.0068,0.0056,0.0057,0.0008,-0.0037,0,0,0,-0.0296,-0.0291,-0.0289,-0.0276,-0.0253,-0.0182,-0.0173,-0.0133,-0.012,-0.0072,-0.0067,0.0055,0.0057,0.0008,-0.0036,-0.0018,0,0,0,-0.0307,-0.0314,-0.029,-0.0286,-0.0254,-0.0206,-0.0173,-0.0131,-0.0094,-0.0069,0.0056,0.0057,0.0008,-0.0035,-0.0018,-0.0067,0,0,0,-0.0323,-0.0317,-0.0312,-0.0289,-0.0269,-0.0213,-0.0165,-0.0108,-0.0058,0.0029,0.0032,0.0008,-0.0035,-0.0018,0.0019,0,0,0,0,-0.032,-0.0327,-0.0312,-0.0296,-0.0248,-0.0203,-0.0136,-0.0087,-0.0008,-0.0031,0.0051,0.0026,0.0038,0.0013,0.0064,0.0064,0.0064,0.0064,0.0064,-0.0376,-0.0349,-0.0349,-0.0312,-0.0274,-0.0187,-0.0135,-0.005,-0.0005,0.0034,0.0018,0.0039,0.0015,0.007,0.007,0.0069,0.0069,0.0069,0.0069,-0.0424,-0.043,-0.039,-0.0388,-0.0324,-0.0278,-0.0143,-0.0093,0.0004,0.0033,0.0048,0.0003,0.0065,0.0066,0.0067,0.0067,0.0067,0.0067,0.0068,-0.0474,-0.0476,-0.0477,-0.0479,-0.0447,-0.0357,-0.0299,-0.0192,-0.0062,-0.0039,-0.0031,0.0017,-0.0015,-0.0021,-0.0021,-0.0021,-0.0021,-0.0021,-0.0022,-0.0535,-0.0532,-0.0582,-0.0574,-0.0587,-0.0551,-0.0398,-0.031,-0.0169,-0.0096,-0.0054,0.0009,0.0012,-0.0018,-0.0023,-0.0023,-0.0023,-0.0023,-0.0022,-0.06,-0.0612,-0.0689,-0.0726,-0.0745,-0.0703,-0.0573,-0.0355,-0.0257,-0.0163,-0.01,-0.0096,-0.0082,-0.0077,-0.0109,-0.0142,-0.0143,-0.0144,0,-0.065,-0.066,-0.0779,-0.0858,-0.0872,-0.0791,-0.0636,-0.0483,-0.0298,-0.0313,-0.0275,-0.0215,-0.0207,-0.0203,-0.0198,-0.0243,0,0,0,-0.0698,-0.0732,-0.0829,-0.0909,-0.093,-0.074,-0.0587,-0.0506,-0.0347,-0.0221,-0.0161,-0.0156,-0.0109,-0.0028,0.0004,0.0008,-0.0038,0,0]}]]